[Iaude] MPEC K129: 2024 KZ [a=1.51,e=0.41,i=2.7,H=25.0]
    mpec at cfa.harvard.edu 
    mpec at cfa.harvard.edu
       
    Wed May 29 21:32:15 EDT 2024
    
    
  
M.P.E.C. 2024-K129                                 Issued 2024 May 30, 01:30 UT
     The Minor Planet Electronic Circulars contain information on unusual
         minor planets, routine data on comets and natural satellites,
         and occasional editorial announcements.  They are published
    on behalf of Division F of the International Astronomical Union by the
          Minor Planet Center, Smithsonian Astrophysical Observatory,
                          Cambridge, MA 02138, U.S.A.
			  
             Prepared using the Tamkin Foundation Computer Network
                              MPC at CFA.HARVARD.EDU
            URL https://www.minorplanetcenter.net/    ISSN 1523-6714
                                    2024 KZ                                     
Observations:
     K24K00Z  C2024 05 02.44118315 24 49.737-02 59 00.05         22.31GVEK129F52
     K24K00Z  C2024 05 02.45174615 24 49.638-02 58 45.86         22.71GVEK129F52
     K24K00Z  C2024 05 06.48342115 25 13.253-01 16 55.19         22.58GVEK129F52
     K24K00Z  C2024 05 06.49529915 25 13.041-01 16 35.18         23.10GVEK129F52
     K24K00Z  C2024 05 06.50716915 25 12.876-01 16 14.97         22.35GVEK129F52
     K24K00Z  C2024 05 06.51907015 25 12.691-01 15 54.87         22.27GVEK129F52
     K24K00Z  C2024 05 08.44439715 25 20.520-00 18 23.22         21.63GVEK129F52
     K24K00Z*1C2024 05 29.30597015 30 27.360+36 30 12.46         20.15GVEK129G96
     K24K00Z 1C2024 05 29.31116615 30 27.313+36 32 00.42         20.34GVEK129G96
     K24K00Z 1C2024 05 29.31636915 30 27.367+36 33 46.98               VEK129G96
     K24K00Z 1C2024 05 29.32156615 30 27.295+36 35 38.11               VEK129G96
     K24K00Z  C2024 05 29.34789515 30 26.576+36 44 38.70         19.8 GVEK129H01
     K24K00Z  C2024 05 29.35422915 30 26.630+36 46 50.74         20.8 GVEK129H01
     K24K00Z  C2024 05 29.36782015 30 26.783+36 51 34.11         20.4 GVEK129H01
     K24K00Z KC2024 05 29.37557215 30 26.897+36 54 15.74         20.2 GVEK129H01
     K24K00Z DC2024 05 29.40706 15 30 28.14 +37 05 26.4          20.3 GVEK129695
     K24K00Z DC2024 05 29.40831 15 30 28.16 +37 05 52.7          20.1 GVEK129695
     K24K00Z KC2024 05 29.41787215 30 28.364+37 09 09.58         19.91GVEK129I52
     K24K00Z KC2024 05 29.41856315 30 28.343+37 09 24.12         19.64GVEK129I52
     K24K00Z KC2024 05 29.41925515 30 28.393+37 09 38.77         19.81GVEK129I52
     K24K00Z KC2024 05 29.41994415 30 28.397+37 09 53.10         20.27GVEK129I52
     K24K00Z KB2024 05 29.92756 15 31 31.00 +40 20 44.9          19.7 RZEK129106
     K24K00Z KB2024 05 29.93127 15 31 31.06 +40 22 12.4                ZEK129106
     K24K00Z KB2024 05 29.93484 15 31 31.17 +40 23 36.7          19.0 RZEK129106
     K24K00Z KB2024 05 29.93825 15 31 31.23 +40 24 58.0          18.8 RZEK129106
     K24K00Z KC2024 05 29.96019515 31 31.78 +40 33 39.3          19.2 GVEK129L01
     K24K00Z KC2024 05 29.96266715 31 31.84 +40 34 37.7          19.2 GVEK129L01
     K24K00Z KC2024 05 29.96533615 31 31.89 +40 35 40.6          19.5 GVEK129L01
     K24K00Z KC2024 05 29.96830815 31 31.92 +40 36 51.1          19.4 GVEK129L01
     K24K00Z KC2024 05 29.97120415 31 31.99 +40 37 59.5          19.3 GVEK129L01
Observer details:
106 Crni Vrh.  Observer H. Mikuz.  0.60-m f/3.3 reflector + CMO.
695 Kitt Peak.  Observer A. F. Tubbiolo.  2.3-m f/9 reflector + CCD.
F52 Pan-STARRS 2, Haleakala.  Observers J. Herman, T. Lowe, P. Minguez, A.
    Schultz, I. Smith.  Measurers K. Chambers, T. de Boer, J. Fairlamb, H.
    Gao, M. Huber, C.-C. Lin, E. Magnier, Y. Ramanjooloo, R. Wainscoat, R.
    Weryk.  1.8-m Ritchey-Chretien + CCD.
G96 Mt. Lemmon Survey.  Observer T. Beuden.  Measurers T. Beuden, V. F.
    Carvajal, D. Fay, J. B. Fazekas, D. C. Fuls, A. R. Gibbs, A. D. Grauer, H.
    Groeller, J. K. Hogan, R. A. Kowalski, S. M. Larson, G. J. Leonard, D.
    Rankin, R. L. Seaman, F. C. Shelly, K. W. Wierzchos.  1.5-m reflector +
    10K CCD.
H01 Magdalena Ridge Observatory, Socorro.  Observers W. H. Ryan, E. V. Ryan.
    Measurer W. H. Ryan.  2.4-m f/8.9 Ritchey-Chretien + CCD.
I52 Steward Observatory, Mt. Lemmon Station.  Observer V. F. Carvajal.
    Measurers T. Beuden, V. F. Carvajal, D. Fay, J. B. Fazekas, D. C. Fuls, A.
    R. Gibbs, A. D. Grauer, H. Groeller, J. K. Hogan, R. A. Kowalski, S. M.
    Larson, G. J. Leonard, D. Rankin, R. L. Seaman, F. C. Shelly, K. W.
    Wierzchos.  1.0-m prime focus + CCD.
L01 Visnjan Observatory, Tican.  Observer K. Korlevic.  1.0-m f/2.9 reflector
    + CCD.
Orbital elements:
2024 KZ                                                  Earth MOID = 0.0290 AU
Epoch 2024 Mar. 31.0 TT = JDT 2460400.5                 Veres                   
M 303.14659              (2000.0)            P               Q                  
n   0.53327239     Peri.  197.28829     +0.60102115     +0.79802579             
a   1.5060405      Node   109.67661     -0.72765878     +0.56909751             
e   0.4120984      Incl.    2.67307     -0.33058476     +0.19819902             
P   1.85           H   25.05          G   0.15           U   7                  
Residuals in seconds of arc
240502 F52  0.0   0.1+    240529 G96  0.1+  0.1+    240529 I52  0.2-  0.1+
240502 F52  0.0   0.1-    240529 H01  0.0   0.0     240529 106  0.0   0.0
240506 F52  0.1+  0.1+    240529 H01  0.1+  0.0     240529 106  0.2-  0.2-
240506 F52  0.2-  0.0     240529 H01  0.1+  0.0     240529 106  0.1+  0.3-
240506 F52  0.1+  0.1+    240529 H01  0.0   0.1-    240529 106  0.0   0.4+
240506 F52  0.0   0.0     240529 695  0.2+  0.0     240529 L01  0.1+  0.1+
240508 F52  0.1+  0.2-    240529 695  0.1+  0.1+    240529 L01  0.1+  0.0
240529 G96  0.1-  0.2+    240529 I52  0.2+  0.1-    240529 L01  0.0   0.2-
240529 G96  0.3-  0.4-    240529 I52  0.3-  0.0     240529 L01  0.5-  0.0
240529 G96 (0.7+  2.5-)   240529 I52  0.0   0.1+    240529 L01  0.5-  0.1-
Ephemeris:
2024 KZ                  a,e,i = 1.51, 0.41, 3                   q = 0.8854
Date    TT    R. A. (2000) Decl.     Delta      r    Elong.  Phase     V
2024 04 30    15 24 25.9 -03 50 46   0.2119  1.2112   162.6    14.4    22.9
...
2024 05 15    15 25 31.1 +04 03 34   0.1151  1.1178   157.1    20.6    21.6
...
2024 05 23    15 26 23.4 +14 26 58   0.07045 1.0703   144.0    33.7    20.8
...
2024 05 29    15 30 05.7 +34 45 34   0.04178 1.0364   122.2    55.8    20.3
2024 05 30    15 31 39.7 +40 49 32   0.03794 1.0309   116.1    62.0    20.2
2024 05 31    15 34 00.1 +48 07 41   0.03463 1.0255   108.8    69.4    20.2
...
2024 06 06    02 56 28.9 +71 17 02   0.03320 0.9945    51.6   126.9    23.1
...
2024 06 14    03 19 16.0 +34 40 59   0.06826 0.9575    30.6   147.3    27.1
...
2024 06 29    03 31 53.3 +20 33 40   0.1557  0.9064    41.8   131.7    26.7
M. P. C. Staff               (C) Copyright 2024 MPC           M.P.E.C. 2024-K129
    
    
More information about the Iaude
mailing list